Regional Weather Roundup
Issued by NWS

Home | Current Version | Previous Version | Graphics & Text | Print | Product List | Glossary On
Versions: 1 2 3 4 5 6 7 8 9 10 11 12 13 14 15 16 17 18 19 20 21 22 23 24 25 26 27 28 29 30 31 32 33 34 35 36 37 38 39 40 41 42 43 44 45 46 47 48 49 50
000
ASUS43 KLSX 010559
RWRMO

WEATHER SUMMARY FOR MISSOURI
NATIONAL WEATHER SERVICE SPRINGFIELD MO
100 AM CDT SAT AUG 01 2015

NOTE: "FAIR" INDICATES FEW OR NO CLOUDS BELOW 12,000 FEET WITH NO
       SIGNIFICANT WEATHER AND/OR OBSTRUCTIONS TO VISIBILITY.
       CURRENT SKY AND/OR WEATHER CONDITIONS ARE NOT AVAILABLE FOR
       CHILLICOTHE AND FARMINGTON.

MOZ001>031-035>038-043-044-053-054-010700-
...NORTHERN AND WESTERN MISSOURI...

CITY           SKY/WX    TMP DP  RH WIND       PRES   REMARKS
KANSAS CTY INT MOCLDY    79  65  62 CALM      30.08S
6HR MIN TEMP:  73; 6HR MAX TEMP:  86;

KANSAS C DTWN  CLEAR     79  71  76 CALM      30.06F
6HR MIN TEMP:  77; 6HR MAX TEMP:  88;

LEE`S SUMMIT   PTCLDY    74  66  76 NE5       30.09S
6HR MIN TEMP:  72; 6HR MAX TEMP:  89;

ST JOSEPH      MOCLDY    73  70  90 SE5       30.06F
6HR MIN TEMP:  73; 6HR MAX TEMP:  88;

CHILLICOTHE      N/A     77  72  84 CALM      30.07F
6HR MIN TEMP:  76; 6HR MAX TEMP:  89;

KIRKSVILLE     CLOUDY    74  70  87 CALM      30.08S
6HR MIN TEMP:  73; 6HR MAX TEMP:  83;


$$
MOZ066>068-077>081-088>096-101>105-010700-
...SOUTHWEST MISSOURI...

CITY           SKY/WX    TMP DP  RH WIND       PRES   REMARKS
SPRINGFIELD    CLEAR     68  60  75 S3        30.11S
6HR MIN TEMP:  68; 6HR MAX TEMP:  87;

JOPLIN         PTCLDY    66  57  72 CALM      30.10F
6HR MIN TEMP:  65; 6HR MAX TEMP:  88;


$$
MOZ032>034-039>042-045>050-055>058-069>072-010700-
...CENTRAL MISSOURI...

CITY           SKY/WX    TMP DP  RH WIND       PRES   REMARKS
COLUMBIA       MOCLDY    75  68  78 CALM      30.08R
6HR MIN TEMP:  73; 6HR MAX TEMP:  87;

JEFFERSON CITY PTCLDY    71  68  90 CALM      30.06S
6HR MIN TEMP:  71; 6HR MAX TEMP:  89;

ROLLA          CLEAR     66  63  90 SW9       30.07F
6HR MIN TEMP:  66; 6HR MAX TEMP:  84;

SEDALIA        CLEAR     71  66  84 CALM      30.09R
6HR MIN TEMP:  71; 6HR MAX TEMP:  88;

WARRENSBURG    PTCLDY    70  68  94 CALM      30.08R
OSAGE BEACH    CLEAR     70  66  88 CALM      30.09S

$$
MOZ051-052-059>065-010700-
...EAST CENTRAL MISSOURI...

CITY           SKY/WX    TMP DP  RH WIND       PRES   REMARKS
ST LOUIS INTL  FAIR      78  67  68 CALM      30.06S
6HR MIN TEMP:  78; 6HR MAX TEMP:  89;

SPIRIT OF STL  PTCLDY    71  69  93 CALM      30.04S
6HR MIN TEMP:  70; 6HR MAX TEMP:  88;

ST CHARLES     PTCLDY    74  72  93 CALM      30.04F
6HR MIN TEMP:  73; 6HR MAX TEMP:  89;


$$
MOZ072>076-082>087-097>100-106>115-010700-
...SOUTH CENTRAL AND SOUTHEAST MISSOURI...

CITY           SKY/WX    TMP DP  RH WIND       PRES   REMARKS
CAPE GIRARDEAU CLEAR     70  69  97 CALM      30.05S
6HR MIN TEMP:  70; 6HR MAX TEMP:  89;

FARMINGTON     CLEAR     66  64  94 CALM      30.12F
6HR MIN TEMP:  66; 6HR MAX TEMP:  86;

POPLAR BLUFF   CLEAR     72  70  93 CALM      30.05F
6HR MIN TEMP:  72; 6HR MAX TEMP:  89;

WEST PLAINS    PTCLDY    68  63  84 CALM      30.13S
6HR MIN TEMP:  68; 6HR MAX TEMP:  86;


$$


USA.gov is the U.S. government's official web portal to all federal, state and local government web resources and services.